SCP
1 1 1 0 0 0 0 0 0 0 0 0 0 0 0 0 0 0 0 0 0 0 0 0 0 0 0 0 0 0 0 0 0 0 0 0 0 -0
1 1 0 1 0 0 0 0 0 0 0 0 0 0 0 0 0 0 0 0 0 0 0 0 0 0 0 0 0 0 0 0 0 0 0 0 0 0
0 0 0 0 0 0 0 0 0 0 0 0 0 0 0 0 0 0 0 0 0 0 0 0 0 0 0 0 0 0 0 0 0 0 0 0 0 0
-0 0 0 0 0 0 0 0 0 0 0 0 0 0 0 0 0 0 0 0 0 0 0 0 0 0 0 0 0 0 0 0 0 0 0 0 0 0
-0 0 -0 0 0 0 0 0 0 0 0 0 0 0 0 0 0 0 0 0 0 0 0 0 0 0 0 0 0 0 0 0 0 0 0 0 0 -0
0 0 0 0 0 0 -0 0 0 0 0 0 0 0 0 0 0 0 0 0 0 0 0 0 0 0 0 0 0 0 0 0 0 0 0 0 -0 -0
0 0 -0 0 0 -0 -0 0 0 0 0 0 0 0 0 0 0 0 0 0 0 0 0 0 0 0 0 0 0 0 0 0 0 0 0 0 -0 0
0 0 0 0 -0 -0 0 0 0 0 0 0 0 0 0 0 0 0 0 0 0 0 0 0 0 0 0 0 0 0 0 -0 0 0 0 0 0 0
0 0 0 0 -0 0 0 0 0 0 0 0 0 0 0 0 0 0 0 0 0 0 0 0 0 0 0 0 0 0 0 -0 -0 0 0 0 0 0
0 0 0 0 0 0 0 -0 0 0 0 0 0 0 0 0 0 0 0 0 0 0 0 0 0 0 0 0 0 0 0 -0 0 0 0 0 0 0
0 0 0 0 0 0 0 0 0 0 0 0 0 0 0 0 0 0 0 0 0 0 0 0 0 0 0 0 0 0 0 -0 -0 0 0 0 -0 0
0 0 0 0 0 0 0 0 0 0 0 0 0 0 0 0 -0 0 0 0 0 0 0 0 0 0 0 0 0 -0 -0 -0 0 0 0 -0 -0 0
0 0 0 0 0 0 0 0 0 0 0 0 -0 0 -0 0 -0 0 0 0 0 0 0 0 0 0 0 0 0 -0 -0 -0 0 0 0 -0 -0 -0
0 0 0 0 0 0 0 0 0 0 0 0 0 0 0 -0 0 0 0 0 0 0 0 0 0 0 0 0 0 0 -0 -0 0 0 0 -0 -0 -0
0 0 0 0 0 0 0 0 0 0 0 0 0 0 0 0 0 0 0 0 0 0 0 0 0 0 0 0 0 0 0 -0 0 0 0 -0 -0 0
0 0 0 0 0 0 0 0 0 0 0 0 0 0 0 0 0 0 0 0 0 0 0 0 0 0 0 0 0 0 0 0 0 0 0 -0 0 -0
0 0 0 0 0 0 0 0 0 0 0 0 0 0 0 0 0 0 0 0 0 0 0 0 0 0 0 0 0 0 0 0 -0 -0 0 -0 0 0
0 0 0 0 0 0 0 0 0 0 0 0 0 0 0 0 0 0 0 0 0 0 0 0 0 0 0 0 0 0 0 0 0 -0 0 -0 0 0
0 0 0 0 0 0 0 0 0 0 0 0 0 0 0 0 0 0 0 0 0 0 0 0 0 0 0 0 0 0 0 0 0 -0 -0 -0 -0 0
0 -0 0 0 0 0 0 0 0 0 0 0 0 0 0 0 0 0 0 0 0 0 0 0 0 0 0 0 0 0 0 -0 -0 -0 0 0 -0 -0
0 -0 0 -0 0 0 0 0 0 0 0 0 0 0 0 0 0 0 0 0 0 0 0 0 0 0 0 0 0 0 0 -0 -0 -0 0 0 0 0
0 0 0 -0 0 0 0 0 0 0 0 0 0 0 0 0 0 0 0 0 0 0 0 0 0 0 0 0 0 0 0 0 -0 -0 -0 -0 -0 0
0 0 0 0 0 0 0 0 0 0 0 0 0 0 0 0 0 -0 0 0 0 0 0 0 0 0 0 0 0 0 0 0 0 0 -0 -0 -0 -0
Wind_Speed_500mb
39 38 37 33 39 46 43 44 49 40 44 45 43 36 25 22 19 14 10 13 19 19 18 18 22 22 19 18 23 22 25 28 33 39 45 47 42 37
45 37 40 30 37 46 39 40 42 45 44 49 43 32 26 22 22 13 12 14 18 16 10 11 15 16 15 15 17 22 24 28 31 37 44 46 38 36
61 46 45 30 31 46 45 41 43 42 37 38 43 35 29 23 22 16 13 17 13 12 9 11 14 17 12 13 16 20 23 28 33 36 40 45 36 38
68 58 54 39 40 38 44 41 50 50 47 41 45 39 29 22 22 18 16 14 13 11 9 11 14 15 13 10 13 17 23 28 33 38 40 37 34 33
63 59 79 64 64 47 48 56 54 55 50 43 40 41 30 24 22 22 21 20 18 14 14 11 15 15 12 10 11 16 22 27 32 37 38 30 30 37
61 75 76 70 62 68 60 62 56 57 53 49 39 38 32 27 25 25 23 19 17 22 21 18 16 15 9 10 12 16 21 26 31 35 34 30 31 41
48 62 81 68 65 81 73 69 61 63 62 58 51 44 34 30 37 27 25 21 18 19 24 23 22 16 9 14 18 16 21 24 29 33 28 34 37 36
20 30 63 70 75 85 81 89 47 56 69 74 63 57 36 38 40 34 35 29 22 20 20 25 24 17 11 12 17 12 18 22 28 33 26 34 38 39
29 29 38 50 78 72 87 94 85 72 78 81 67 59 46 45 49 45 44 34 23 18 16 21 22 16 12 13 13 7 12 17 27 31 26 35 37 40
47 45 37 42 51 54 83 115 96 87 89 76 67 71 54 41 44 41 40 35 30 21 16 17 21 16 13 13 13 5 7 13 21 29 28 34 39 39
54 50 50 41 40 47 54 79 95 119 104 92 90 70 61 38 37 52 52 47 33 25 17 16 18 15 13 11 16 10 4 6 17 26 27 32 36 34
59 56 57 54 47 41 51 79 93 106 101 81 88 84 73 81 58 59 66 52 35 25 19 20 18 14 11 14 17 14 6 2 13 21 26 29 32 32
83 76 62 60 53 48 46 51 83 109 97 102 103 103 99 73 78 78 74 48 40 29 19 15 18 19 13 12 17 18 12 3 10 16 21 26 29 29
61 64 68 68 59 44 43 44 42 76 98 114 116 125 123 95 75 75 68 55 43 25 20 19 16 17 20 18 21 25 17 10 9 16 19 21 25 28
51 59 64 68 73 60 54 45 46 48 67 77 70 90 108 115 76 72 69 62 47 36 24 19 17 16 20 18 22 31 25 17 14 17 19 21 22 27
58 62 66 60 75 70 62 54 51 51 52 62 65 62 72 74 76 74 72 66 61 48 36 30 26 23 23 20 22 34 26 14 20 17 21 21 22 30
44 42 56 56 53 65 63 61 55 55 55 52 61 59 61 64 70 81 75 76 74 61 51 45 39 32 26 24 34 32 28 23 22 17 24 22 22 28
63 49 36 38 38 55 63 64 61 55 54 55 53 55 70 66 73 80 84 93 82 72 62 58 52 45 41 35 29 37 31 27 24 19 21 20 21 27
60 64 54 41 36 40 50 63 61 59 44 45 51 55 56 55 81 73 83 99 92 84 71 63 61 57 58 55 46 40 30 35 30 24 24 24 28 28
56 67 60 51 36 38 44 40 37 48 43 44 44 52 50 61 63 84 88 98 104 97 82 75 66 64 63 62 56 51 40 27 30 26 24 27 31 31
46 56 63 62 42 33 29 35 38 43 44 33 36 48 45 52 65 86 103 96 103 96 91 84 68 62 56 50 53 59 51 38 20 17 23 25 25 33
45 47 55 62 57 40 33 29 31 35 30 34 40 40 48 38 63 72 96 104 101 95 91 83 75 69 63 59 56 63 61 51 40 29 23 17 19 16
40 40 47 54 63 55 43 37 34 32 29 30 36 34 30 45 44 54 90 102 105 103 102 89 80 70 67 60 58 65 62 56 52 46 33 23 15 19
Wind_Direction_500mb
252 264 263 270 262 245 255 246 229 202 209 226 232 241 241 258 272 265 235 225 236 255 278 298 307 312 311 324 339 342 345 348 348 347 342 340 344 349
250 259 259 256 259 245 258 236 233 233 219 229 233 241 234 250 262 254 234 232 239 242 270 289 304 303 308 328 343 349 350 352 348 351 345 344 351 359
244 258 266 260 253 238 248 241 228 229 230 223 222 220 226 239 253 251 243 243 237 217 251 284 293 290 291 319 347 359 353 349 351 352 350 348 360 1
238 238 250 251 237 234 251 253 226 242 243 243 223 218 225 241 246 246 239 250 246 214 241 267 282 287 288 308 350 357 353 354 353 350 353 354 2 359
238 243 248 245 234 242 235 254 237 235 241 243 229 224 218 229 244 238 238 236 236 215 224 250 280 277 286 310 334 346 1 355 357 354 354 4 358 352
239 243 251 243 232 230 236 247 238 226 230 233 228 223 222 219 235 236 240 251 246 230 228 241 259 280 292 311 327 346 1 359 358 359 3 6 354 356
256 246 240 237 240 230 247 249 240 237 223 220 221 226 225 231 238 238 235 250 258 253 232 238 251 264 284 323 317 342 358 3 2 6 14 4 358 359
289 261 251 257 243 235 251 240 243 230 225 225 224 228 225 245 241 239 238 239 249 264 244 233 246 256 273 282 285 332 356 4 9 9 22 7 6 3
264 273 276 251 240 251 239 238 240 229 224 227 223 230 236 239 245 237 235 236 252 276 251 234 239 247 259 258 268 315 346 6 17 16 26 10 15 13
270 265 269 267 258 254 238 236 237 235 226 228 228 233 249 243 244 256 245 227 241 248 257 245 238 238 239 241 244 241 328 6 18 21 30 20 24 28
267 262 262 265 268 267 258 245 239 234 234 226 225 231 231 231 248 251 226 220 233 240 250 244 235 226 219 213 226 204 261 354 9 19 40 32 35 45
271 264 257 260 259 266 258 252 236 226 222 215 214 227 245 243 263 248 241 231 230 231 234 230 219 214 218 211 216 200 213 332 15 28 52 43 49 54
264 263 258 256 254 258 260 259 246 227 230 225 230 232 248 245 249 244 232 238 236 233 239 209 213 204 188 172 201 192 204 175 35 45 59 53 58 63
257 263 261 246 251 246 256 257 262 238 240 232 245 240 241 244 242 235 227 228 228 241 248 209 210 209 199 181 199 189 180 170 69 66 80 66 71 77
250 251 254 247 241 240 248 256 253 249 239 233 241 232 230 236 231 230 222 225 217 222 216 216 212 212 193 198 192 179 171 163 101 79 93 85 80 101
251 254 253 255 243 243 245 251 251 246 244 240 243 244 228 218 218 223 220 221 214 214 214 212 215 218 217 192 193 176 173 154 122 98 103 105 102 112
262 242 247 248 242 238 243 243 246 244 240 237 235 241 240 239 229 224 224 224 215 219 217 207 201 205 192 205 178 181 166 153 131 110 108 120 125 123
262 257 244 241 242 233 236 241 246 244 242 237 231 230 229 231 232 223 224 220 218 220 221 214 207 197 187 184 193 181 169 163 142 124 117 131 142 137
255 252 252 247 240 240 243 237 243 246 239 238 229 230 230 231 234 229 226 217 215 222 219 223 209 206 191 186 180 185 185 168 160 143 136 138 154 149
250 248 242 238 235 233 232 222 220 231 235 232 229 226 228 230 231 217 222 216 218 217 213 209 209 207 204 193 178 176 179 177 167 155 148 148 158 162
249 244 238 242 237 220 217 219 223 232 238 235 240 238 240 233 233 223 216 219 216 212 207 206 207 204 199 200 184 173 173 172 179 160 152 142 157 160
248 247 237 232 236 224 214 212 221 224 230 235 236 243 241 255 238 238 213 208 215 208 205 204 201 196 194 202 190 179 173 172 173 166 158 148 153 163
243 246 239 228 227 229 219 216 224 225 231 241 246 250 254 253 248 251 200 207 207 206 204 199 196 191 195 197 193 185 178 173 176 166 167 157 151 158
Wind_Speed_850mb
39 38 37 33 39 46 43 44 49 40 44 45 43 36 25 22 19 14 10 13 19 19 18 18 22 22 19 18 23 22 25 28 33 39 45 47 42 37
45 37 40 30 37 46 39 40 42 45 44 49 43 32 26 22 22 13 12 14 18 16 10 11 15 16 15 15 17 22 24 28 31 37 44 46 38 36
61 46 45 30 31 46 45 41 43 42 37 38 43 35 29 23 22 16 13 17 13 12 9 11 14 17 12 13 16 20 23 28 33 36 40 45 36 38
68 58 54 39 40 38 44 41 50 50 47 41 45 39 29 22 22 18 16 14 13 11 9 11 14 15 13 10 13 17 23 28 33 38 40 37 34 33
63 59 79 64 64 47 48 56 54 55 50 43 40 41 30 24 22 22 21 20 18 14 14 11 15 15 12 10 11 16 22 27 32 37 38 30 30 37
61 75 76 70 62 68 60 62 56 57 53 49 39 38 32 27 25 25 23 19 17 22 21 18 16 15 9 10 12 16 21 26 31 35 34 30 31 41
48 62 81 68 65 81 73 69 61 63 62 58 51 44 34 30 37 27 25 21 18 19 24 23 22 16 9 14 18 16 21 24 29 33 28 34 37 36
20 30 63 70 75 85 81 89 47 56 69 74 63 57 36 38 40 34 35 29 22 20 20 25 24 17 11 12 17 12 18 22 28 33 26 34 38 39
29 29 38 50 78 72 87 94 85 72 78 81 67 59 46 45 49 45 44 34 23 18 16 21 22 16 12 13 13 7 12 17 27 31 26 35 37 40
47 45 37 42 51 54 83 115 96 87 89 76 67 71 54 41 44 41 40 35 30 21 16 17 21 16 13 13 13 5 7 13 21 29 28 34 39 39
54 50 50 41 40 47 54 79 95 119 104 92 90 70 61 38 37 52 52 47 33 25 17 16 18 15 13 11 16 10 4 6 17 26 27 32 36 34
59 56 57 54 47 41 51 79 93 106 101 81 88 84 73 81 58 59 66 52 35 25 19 20 18 14 11 14 17 14 6 2 13 21 26 29 32 32
83 76 62 60 53 48 46 51 83 109 97 102 103 103 99 73 78 78 74 48 40 29 19 15 18 19 13 12 17 18 12 3 10 16 21 26 29 29
61 64 68 68 59 44 43 44 42 76 98 114 116 125 123 95 75 75 68 55 43 25 20 19 16 17 20 18 21 25 17 10 9 16 19 21 25 28
51 59 64 68 73 60 54 45 46 48 67 77 70 90 108 115 76 72 69 62 47 36 24 19 17 16 20 18 22 31 25 17 14 17 19 21 22 27
58 62 66 60 75 70 62 54 51 51 52 62 65 62 72 74 76 74 72 66 61 48 36 30 26 23 23 20 22 34 26 14 20 17 21 21 22 30
44 42 56 56 53 65 63 61 55 55 55 52 61 59 61 64 70 81 75 76 74 61 51 45 39 32 26 24 34 32 28 23 22 17 24 22 22 28
63 49 36 38 38 55 63 64 61 55 54 55 53 55 70 66 73 80 84 93 82 72 62 58 52 45 41 35 29 37 31 27 24 19 21 20 21 27
60 64 54 41 36 40 50 63 61 59 44 45 51 55 56 55 81 73 83 99 92 84 71 63 61 57 58 55 46 40 30 35 30 24 24 24 28 28
56 67 60 51 36 38 44 40 37 48 43 44 44 52 50 61 63 84 88 98 104 97 82 75 66 64 63 62 56 51 40 27 30 26 24 27 31 31
46 56 63 62 42 33 29 35 38 43 44 33 36 48 45 52 65 86 103 96 103 96 91 84 68 62 56 50 53 59 51 38 20 17 23 25 25 33
45 47 55 62 57 40 33 29 31 35 30 34 40 40 48 38 63 72 96 104 101 95 91 83 75 69 63 59 56 63 61 51 40 29 23 17 19 16
40 40 47 54 63 55 43 37 34 32 29 30 36 34 30 45 44 54 90 102 105 103 102 89 80 70 67 60 58 65 62 56 52 46 33 23 15 19
Wind_Direction_850mb
252 264 263 270 262 245 255 246 229 202 209 226 232 241 241 258 272 265 235 225 236 255 278 298 307 312 311 324 339 342 345 348 348 347 342 340 344 349
250 259 259 256 259 245 258 236 233 233 219 229 233 241 234 250 262 254 234 232 239 242 270 289 304 303 308 328 343 349 350 352 348 351 345 344 351 359
244 258 266 260 253 238 248 241 228 229 230 223 222 220 226 239 253 251 243 243 237 217 251 284 293 290 291 319 347 359 353 349 351 352 350 348 360 1
238 238 250 251 237 234 251 253 226 242 243 243 223 218 225 241 246 246 239 250 246 214 241 267 282 287 288 308 350 357 353 354 353 350 353 354 2 359
238 243 248 245 234 242 235 254 237 235 241 243 229 224 218 229 244 238 238 236 236 215 224 250 280 277 286 310 334 346 1 355 357 354 354 4 358 352
239 243 251 243 232 230 236 247 238 226 230 233 228 223 222 219 235 236 240 251 246 230 228 241 259 280 292 311 327 346 1 359 358 359 3 6 354 356
256 246 240 237 240 230 247 249 240 237 223 220 221 226 225 231 238 238 235 250 258 253 232 238 251 264 284 323 317 342 358 3 2 6 14 4 358 359
289 261 251 257 243 235 251 240 243 230 225 225 224 228 225 245 241 239 238 239 249 264 244 233 246 256 273 282 285 332 356 4 9 9 22 7 6 3
264 273 276 251 240 251 239 238 240 229 224 227 223 230 236 239 245 237 235 236 252 276 251 234 239 247 259 258 268 315 346 6 17 16 26 10 15 13
270 265 269 267 258 254 238 236 237 235 226 228 228 233 249 243 244 256 245 227 241 248 257 245 238 238 239 241 244 241 328 6 18 21 30 20 24 28
267 262 262 265 268 267 258 245 239 234 234 226 225 231 231 231 248 251 226 220 233 240 250 244 235 226 219 213 226 204 261 354 9 19 40 32 35 45
271 264 257 260 259 266 258 252 236 226 222 215 214 227 245 243 263 248 241 231 230 231 234 230 219 214 218 211 216 200 213 332 15 28 52 43 49 54
264 263 258 256 254 258 260 259 246 227 230 225 230 232 248 245 249 244 232 238 236 233 239 209 213 204 188 172 201 192 204 175 35 45 59 53 58 63
257 263 261 246 251 246 256 257 262 238 240 232 245 240 241 244 242 235 227 228 228 241 248 209 210 209 199 181 199 189 180 170 69 66 80 66 71 77
250 251 254 247 241 240 248 256 253 249 239 233 241 232 230 236 231 230 222 225 217 222 216 216 212 212 193 198 192 179 171 163 101 79 93 85 80 101
251 254 253 255 243 243 245 251 251 246 244 240 243 244 228 218 218 223 220 221 214 214 214 212 215 218 217 192 193 176 173 154 122 98 103 105 102 112
262 242 247 248 242 238 243 243 246 244 240 237 235 241 240 239 229 224 224 224 215 219 217 207 201 205 192 205 178 181 166 153 131 110 108 120 125 123
262 257 244 241 242 233 236 241 246 244 242 237 231 230 229 231 232 223 224 220 218 220 221 214 207 197 187 184 193 181 169 163 142 124 117 131 142 137
255 252 252 247 240 240 243 237 243 246 239 238 229 230 230 231 234 229 226 217 215 222 219 223 209 206 191 186 180 185 185 168 160 143 136 138 154 149
250 248 242 238 235 233 232 222 220 231 235 232 229 226 228 230 231 217 222 216 218 217 213 209 209 207 204 193 178 176 179 177 167 155 148 148 158 162
249 244 238 242 237 220 217 219 223 232 238 235 240 238 240 233 233 223 216 219 216 212 207 206 207 204 199 200 184 173 173 172 179 160 152 142 157 160
248 247 237 232 236 224 214 212 221 224 230 235 236 243 241 255 238 238 213 208 215 208 205 204 201 196 194 202 190 179 173 172 173 166 158 148 153 163
243 246 239 228 227 229 219 216 224 225 231 241 246 250 254 253 248 251 200 207 207 206 204 199 196 191 195 197 193 185 178 173 176 166 167 157 151 158